Regional Weather Roundup
Issued by NWS San Angelo, TX

Home | Current Version | Previous Version | Text Only | Print | Product List | Glossary On
Versions: 1 2 3 4 5 6 7 8 9 10 11 12 13 14 15 16 17 18 19 20 21 22 23 24 25 26 27 28 29 30 31 32 33 34 35 36 37 38 39 40 41 42 43 44 45 46 47 48 49 50
000
ASUS44 KSJT 190910
RWRSJT
WEST CENTRAL TEXAS REGIONAL WEATHER ROUNDUP
NATIONAL WEATHER SERVICE SAN ANGELO TX
400 AM CDT SAT APR 19 2014

NOTE: "FAIR" INDICATES FEW OR NO CLOUDS BELOW 12,000 FEET WITH NO
SIGNIFICANT WEATHER AND/OR OBSTRUCTIONS TO VISIBILITY.

TXZ049-054-064>066-071>073-076>078-098-099-113-114-127-128-139-140-
154-155-168>170-191000
...LOCATIONS ACROSS WEST CENTRAL TEXAS...

CITY           SKY/WX    TMP DP  RH WIND       PRES   REMARKS
SAN ANGELO     CLEAR     61  51  70 SE9       30.08S
ABILENE        PTCLDY    57  49  74 SE14      30.10F
DYESS AFB      NOT AVBL
JUNCTION       PTCLDY    62  53  72 VRB5      30.10F
SWEETWATER     CLEAR     59  50  72 SE15      30.12S
BROWNWOOD      CLOUDY    50  48  93 CALM      30.12F
COLEMAN        PTSUNNY   57  50  76 SE6       30.11F
SONORA         MOCLDY    61  52  72 SE8       30.10S
OZONA          FAIR      61  50  67 S10       30.10S
BRADY          CLEAR     55  52  88 SE6       30.11S
$$

TEXAS PANHANDLE/OKLAHOMA PANHANDLE

CITY           SKY/WX    TMP DP  RH WIND       PRES   REMARKS
AMARILLO       PTCLDY    52  42  69 S21       30.07F
BORGER         PTCLDY    56  43  61 S21G30    30.05F
CANADIAN       CLOUDY    56  49  74 S12       30.07F
DALHART        CLEAR     53  43  68 S17       30.06S
DUMAS          MOSUNNY   53  42  66 S15       30.06S
GUYMON         NOT AVBL
HEREFORD       MOSUNNY   50  41  72 MISG      30.10R
PAMPA          MOSUNNY   52  44  74 S21       30.08S
PERRYTON       CLOUDY    54  46  75 S16G22    30.05S
$$

SOUTHERN PANHANDLE/SOUTH PLAINS/ROLLING PLAINS

CITY           SKY/WX    TMP DP  RH WIND       PRES   REMARKS
LUBBOCK        MOCLDY    53  42  66 SE12      30.08F
SNYDER         PTCLDY    57  50  76 SE10      30.09S
CHILDRESS      PTCLDY    54  47  77 S10       30.10S
SEMINOLE       PTSUNNY   53  43  68 CALM      30.10R
$$

PERMIAN BASIN

CITY           SKY/WX    TMP DP  RH WIND       PRES   REMARKS
MIDLAND        CLOUDY    58  46  64 SE6       30.06F
ODESSA         CLOUDY    62  49  62 S10       30.07S
WINK           CLOUDY    64  50  60 SE9       30.03S
$$

FAR WEST/SOUTHWEST MOUNTAINS/TRANS PECOS

CITY           SKY/WX    TMP DP  RH WIND       PRES   REMARKS
ALPINE         CLOUDY    60  47  62 S12       30.10F
DRYDEN           N/A     64  52  64 E13       30.02F
EL PASO        MOCLDY    64  46  52 SE6       29.99S
FORT STOCKTON  MOCLDY    62  50  64 S17       30.02F
GUADALUPE PASS NOT AVBL
MARFA          CLOUDY    55  45  67 N3        30.10F
PECOS          PTSUNNY   63  49  61 E12       30.02R
$$

DALLAS/FORT WORTH METROPLEX

CITY           SKY/WX    TMP DP  RH WIND       PRES   REMARKS
DFW AIRPORT    MOCLDY    56  46  69 E5        30.12F
FTW MEACHAM    MOCLDY    57  50  77 CALM      30.11F
DAL-EXECUTIVE  PTCLDY    54  47  77 E3        30.13S
GRAND PRAIRIE  PTCLDY    59  45  58 SE5       30.15S
ADDISON        PTCLDY    61  48  62 SE6       30.15S
MESQUITE       MOSUNNY   56  48  74 SE5       30.14S
LANCASTER      MOSUNNY   52  46  79 CALM      30.14F
$$

NORTH CENTRAL TEXAS

CITY           SKY/WX    TMP DP  RH WIND       PRES   REMARKS
SHRMAN/DENISON MOSUNNY   59  47  63 SE12      30.14F
GAINESVILLE    MOCLDY    52  45  77 CALM      30.15F
BRIDGEPORT     PTSUNNY   50  50  98 CALM      30.13F
DENTON         PTCLDY    50  47  89 CALM      30.13S
WAXAHACHIE     MOSUNNY   54  45  70 E5        30.15R
GRANBURY       PTSUNNY   53  49  87 CALM      30.13S
$$

WESTERN NORTH TEXAS

CITY           SKY/WX    TMP DP  RH WIND       PRES   REMARKS
WICHITA FALLS  MOCLDY    52  47  83 S8        30.10F
VERNON         PTSUNNY   55  49  82 S6        30.11S
BRECKENRIDGE   MOSUNNY   57  49  74 S7        30.11F
COMANCHE       MOCLDY    55  50  83 SE5       30.13F
$$

CENTRAL AND SOUTH CENTRAL TEXAS

CITY           SKY/WX    TMP DP  RH WIND       PRES   REMARKS
AUSTIN/BERGSTM MOCLDY    51  50  96 CALM      30.12S
WACO           CLEAR     50  48  93 CALM      30.13S
HILLSBORO      MOSUNNY   60  47  62 E9        30.13S
TEMPLE         PTCLDY    54  46  76 CALM      30.16S
KILLEEN-GRAY   PTCLDY    57  52  82 CALM      30.11F
FORT HOOD      NOT AVBL
GEORGETOWN     PTCLDY    54  48  82 CALM      30.12F
LAGO VISTA     FAIR      60  53  75 SE5       30.13S
SAN MARCOS     PTCLDY    52  45  76 CALM      30.14S
NEW BRAUNFELS  PTCLDY    56  52  86 CALM      30.11S
RANDOLPH AFB   PTCLDY    54  52  92 N5        30.12S
SAN ANTONIO    PTCLDY    60  55  83 CALM      30.12F
STINSON        PTCLDY    57  54  89 CALM      30.10S
PLEASANTON     NOT AVBL
LA GRANGE      PTCLDY    56  56  97 CALM      30.11R
GIDDINGS       PTSUNNY   55  52  91 CALM      30.16R
$$

EAST TEXAS

CITY           SKY/WX    TMP DP  RH WIND       PRES   REMARKS
PARIS          PTCLDY    54  46  76 E6        30.15F
CLARKSVILLE    MOSUNNY   51  49  93 CALM      30.16R
TYLER          CLEAR     56  50  80 CALM      30.14R
LONGVIEW       CLEAR     53  50  89 CALM      30.14R FOG
PALESTINE      SUNNY     61  53  75 E5        30.15S HAZE
NACOGDOCHES    CLEAR     48  45  87 CALM      30.15R
$$

TEXAS HILL COUNTRY AND EDWARDS PLATEAU

CITY           SKY/WX    TMP DP  RH WIND       PRES   REMARKS
LLANO          SUNNY     54  50  87 CALM      30.15S
HORSESHOE BAY  FAIR      57  51  79 SE5       30.11F
KERRVILLE      PTCLDY    59  54  82 CALM      30.13S
FREDERICKSBRG  CLEAR     57  52  82 SE3       30.12F
ROCKSPRINGS    MOSUNNY   61  54  77 SE7       30.12F
HONDO          PTCLDY    60  54  80 CALM      30.12F
UVALDE         CLOUDY    64  55  74 E5        30.10S
DEL RIO        CLOUDY    68  57  68 SE13      30.05S
$$

SOUTHEAST TEXAS

CITY           SKY/WX    TMP DP  RH WIND       PRES   REMARKS
COLLEGE STN    PTCLDY    59  53  80 SE3       30.13R
CALDWELL       PTSUNNY   54  54 100 CALM      30.15S
CROCKETT       SUNNY     55  55 100 CALM      30.16S FOG
BRENHAM        MOCLDY    56  53  89 CALM      30.13S
HUNTSVILLE     PTCLDY    54  51  90 CALM      30.13S
CONROE         PTCLDY    51  50  96 CALM      30.14S
HOUSTON BUSH   PTCLDY    58  56  93 CALM      30.12F
HOUSTON HOBBY  PTCLDY    60  55  83 CALM      30.11F
PERLAND        CLEAR     56  53  90 CALM      30.13F
WHARTON        FOG       52  52  98 CALM      30.11F VSB 1/4
$$

THE UPPER TEXAS COAST

CITY           SKY/WX    TMP DP  RH WIND       PRES   REMARKS
ORANGE         SUNNY     55  55 100 CALM      30.13F FOG
PORT ARTHUR    PTCLDY    60  55  83 NE5       30.11S
GALVESTON      CLEAR     62  60  93 NW5       30.12F
ANGLETON       FOG       53  53 100 CALM      30.11S VSB 1/2
BAY CITY       FOG       53  53  99 CALM      30.10F VSB 1/4
$$

TEXAS COASTAL BEND, RIO GRANDE PLAINS DEEP SOUTH TEXAS

CITY           SKY/WX    TMP DP  RH WIND       PRES   REMARKS
VICTORIA       FOG       52  51  97 NW5       30.11R VSB 1/4
BEEVILLE       FAIR      58  58 100 CALM      30.10R
ROCKPORT       PTCLDY    59  57  93 CALM      30.09S
PORT ARANSAS   MOSUNNY   64  62  92 CALM      30.09S
PORT LAVACA    SUNNY     56  54  93 CALM      30.09F
CORPUS CHRISTI MOCLDY    58  55  90 CALM      30.09S
KINGSVILLE NAS MOCLDY    56  54  93 NW3       30.10S
COTULLA        CLEAR     60  51  72 S3        30.09F
LAREDO         CLOUDY    66  55  67 SE7       30.11S
BROWNSVILLE    CLOUDY    62  61  96 CALM      30.08S
PORT ISABEL    CLOUDY    65  62  90 SE5       30.07F
HEBBRONVILLE   CLOUDY    59  56  92 SE3       30.10S
MCALLEN        CLOUDY    63  61  93 SE5       30.08F
WESLACO        CLOUDY    62  59  89 S3        30.08S
FALFURRIAS     CLOUDY    56  53  90 CALM      30.09S
EDINBURG       PTSUNNY   59  57  91 CALM      30.09S FOG
$$



USA.gov is the U.S. government's official web portal to all federal, state and local government web resources and services.